Flag for Netherlands Weather past 2 weeks in Eindhoven, Netherlands

Now
52 °F

Cool.


Feels Like: 52 °F
Forecast: 49 / 65 °F
Wind: 2 mph from West

Location: Eindhoven Airport

Current Time: Sep 2, 2015 at 12:19:45 AM

Latest Report: Sep 1, 2015 at 11:25 PM


Visibility: N/A

Pressure: 30.04 "Hg

Humidity: 100%

Dew point: 52 °F

Location of EindhovenLocation

Historic Weather in Eindhoven — Graph

°F

Eindhoven temperature yesterday

Maximum temperature yesterday: 68 °F (at 3:55 PM)
Minimum temperature yesterday: 54 °F (at 10:25 PM)
Average temperature yesterday: 63 °F

Past Weeks' High & Low Weather Summary

 TemperatureHumidityPressure
High86 °F (Aug 31, 3:25 PM)100% (Aug 18, 12:55 AM)30.21 "Hg (Aug 18, 12:55 AM)
Low48 °F (Aug 29, 3:25 AM)34% (Aug 22, 2:55 PM)29.47 "Hg (Aug 24, 2:55 PM)
Average66 °F75%29.94 "Hg
* Reported Aug 17 10:25 PM — Sep 1 10:25 PM, Eindhoven, Weather by CustomWeather, © 2015

Note: Actual official high and low records may vary slightly from our data, if they occured in-between our weather recording intervals... More about our weather records

Advertising

Eindhoven weather history for previous 24 hours

 ConditionsComfort  
Time TempWeatherWind HumidityBarometerVisibility
10:25 PM
Tue, Sep 1
54 °FClear.5 mph88%30.04 "HgN/A
9:55 PM55 °FPassing clouds.5 mph88%30.04 "HgN/A
9:25 PM57 °FPassing clouds.3 mph82%30.04 "HgN/A
8:55 PM59 °FPartly sunny.6 mph77%30.04 "HgN/A
8:25 PM59 °FScattered clouds.5 mph77%30.01 "HgN/A
7:55 PM63 °FMild.6 mph68%30.01 "HgN/A
7:25 PM64 °FClear.7 mph64%30.01 "HgN/A
6:55 PM64 °FMild.8 mph64%29.98 "HgN/A
6:25 PM66 °FPassing clouds.9 mph64%29.98 "HgN/A
5:55 PM66 °FPassing clouds.13 mph60%29.98 "HgN/A
5:25 PM68 °FBroken clouds.12 mph60%29.98 "HgN/A
4:55 PM66 °FHigh level clouds.12 mph68%29.95 "HgN/A
4:25 PM64 °FPartly sunny.14 mph68%29.95 "HgN/A
3:55 PM68 °FBroken clouds.10 mph64%29.95 "HgN/A
3:25 PM66 °FPartly sunny.13 mph64%29.95 "HgN/A
2:55 PM66 °FBroken clouds.12 mph64%29.95 "HgN/A
2:25 PM64 °FLight rain. Mostly cloudy.8 mph73%29.95 "HgN/A
1:56 PM66 °FBroken clouds.9 mph73%29.92 "HgN/A
1:25 PM64 °FPartly sunny.10 mph73%29.92 "HgN/A
1:03 PM64 °FBroken clouds.9 mph78%29.92 "HgN/A
12:25 PM63 °FMore clouds than sun.10 mph77%29.89 "HgN/A
11:55 AM63 °FBroken clouds.10 mph83%29.89 "HgN/A
11:25 AM63 °FMostly cloudy.10 mph83%29.89 "HgN/A
10:59 AM63 °FCloudy.9 mph83%29.89 "HgN/A
10:25 AM63 °FBroken clouds.8 mph83%29.86 "HgN/A
10:00 AM61 °FBroken clouds.9 mph88%29.86 "HgN/A
9:25 AM61 °FMore clouds than sun.8 mph88%29.86 "HgN/A
8:56 AM61 °FMostly cloudy.8 mph94%29.86 "HgN/A
8:25 AM61 °FMostly cloudy.7 mph94%29.86 "HgN/A
7:59 AM61 °FCloudy.5 mph94%29.86 "HgN/A
7:55 AM61 °FCloudy.5 mph94%29.86 "HgN/A
7:25 AM61 °FOvercast.5 mph94%29.86 "HgN/A
7:02 AM61 °FMostly cloudy.8 mph94%29.86 "HgN/A
6:55 AM61 °FPartly cloudy.7 mph94%29.86 "HgN/A
5:25 AM63 °FMostly cloudy.8 mph88%29.83 "HgN/A
4:55 AM63 °FOvercast.8 mph88%29.83 "HgN/A
4:25 AM63 °FOvercast.8 mph94%29.83 "HgN/A
3:55 AM63 °FPartly cloudy.8 mph94%29.83 "HgN/A
3:25 AM63 °FPartly cloudy.8 mph94%29.83 "HgN/A
2:55 AM63 °FMostly cloudy.9 mph94%29.83 "HgN/A
2:25 AM63 °FOvercast.8 mph94%29.83 "HgN/A
1:55 AM64 °FPartly cloudy.10 mph88%29.83 "HgN/A
1:25 AM64 °FPartly cloudy.9 mph94%29.83 "HgN/A
1:03 AM64 °FPassing clouds.12 mph94%29.83 "HgN/A
12:59 AM64 °FMostly cloudy.12 mph94%29.83 "HgN/A
Weather by CustomWeather, © 2015

See weather overviewHow to use our weather pages